sat.trackr.live / text

‹ back to catalog

STARLINK-5452

NORAD 54772 · 2022-175Q

PAYLOAD ACTIVE UNKNOWN

§ Identity

Operator
Country
US
Launch date
2022-12-17
Launch site
AFETR
Launch vehicle
Mass (kg)
RCS (m²)

Purposes: comms

External: N2YO · Heavens-Above · Gunter

§ Orbital elements

Epoch: 2026-09-20T14:13:44.744736Z

Period
93.85 min
Inclination
53.1591°
Eccentricity
0.0001458
Mean motion
15.34388468 rev/d
Perigee alt
461.7 km
Apogee alt
463.7 km
Semi-major
6,840.9 km
B*
2.9045e-5
RAAN
219.4481°
Arg perigee
92.0268°
Mean anomaly
268.0901°
Rev number
20,975

§ Raw data

STARLINK-54521 54772U 22175Q   26263.59287899  .00000605  00000+0  29045-4 0  99922 54772  53.1591 219.4481 0001458  92.0268 268.0901 15.34388468209754

JSON: /api/v1/satellites/54772 · /tle

For live sub-satellite position, see the globe view (requires WebGL).

§ Visibility from observer

Set your observer location to see the next 7 days of passes ≥ 10°. The values pass through the URL so the page stays shareable.

No JS? Fill the form by hand. The geolocation button needs JavaScript.